Weather History for KNLC - September, 2013

Change the Weather History Date:

Thursday, September 19, 2013

  Actual Average Record
Temperature  
Mean Temperature 74 °F -  
Max Temperature 93 °F 88 °F 100 °F (2000)
Min Temperature 55 °F 57 °F 48 °F (1998)
Cooling Degree Days 9    
Growing Degree Days 24 (Base 50)    
Moisture  
Dew Point 41 °F    
Average Humidity 33    
Maximum Humidity 44    
Minimum Humidity 20    
Precipitation  
Precipitation 0.00 in - - ()
Sea Level Pressure  
Sea Level Pressure 29.80 in    
Wind  
Wind Speed 5 mph (NW)    
Max Wind Speed 8 mph    
Max Gust Speed -    
Visibility 10 miles    
Events      
Averages and records for this station are not official NWS values.
T = Trace of Precipitation, MM = Missing Value Source: NWS Daily Summary

Daily Weather History Graph

Daily Weather History Graph

Search for Another Location

Airport or City:

Trip Planner

Search our weather history database for the weather conditions in past years. The results will help you decide how hot, cold, wet, or windy it might be!

Date:

Astronomy

Sep. 19, 2013 Rise Set
Actual Time 6:45 AM PDT 7:00 PM PDT
Civil Twilight 6:19 AM PDT 7:26 PM PDT
Nautical Twilight 5:49 AM PDT 7:56 PM PDT
Astronomical Twilight 5:19 AM PDT 8:26 PM PDT
Moon 7:04 PM PDT (9/19) 6:58 AM PDT (9/19)
Length of Visible Light 13h 06m
Length of Day
12h 15m
Full, 100% of the Moon is Illuminated
Sep 19
Full
Sep 26
Last Quarter
Oct 4
New
Oct 11
First Quarter
Oct 18
Full

Hourly Weather History & Observations

Time (PDT) Temp. Dew Point Humidity Pressure Visibility Wind Dir Wind Speed Gust Speed Precip Events Conditions
12:56 AM 61.0 °F 39.0 °F 44% 29.83 in 9.0 mi West 4.6 mph - N/A   Clear
1:56 AM 60.1 °F 37.9 °F 44% 29.83 in 10.0 mi West 5.8 mph - N/A   Clear
2:56 AM 59.0 °F 36.0 °F 42% 29.83 in 10.0 mi West 6.9 mph - N/A   Clear
3:56 AM 57.9 °F 36.0 °F 44% 29.81 in 9.0 mi WNW 3.5 mph - N/A   Clear
4:56 AM 55.9 °F 34.0 °F 44% 29.82 in 8.0 mi West 6.9 mph - N/A   Clear
5:56 AM 55.9 °F 33.1 °F 42% 29.83 in 10.0 mi WSW 6.9 mph - N/A   Clear
6:56 AM 55.0 °F 33.1 °F 43% 29.85 in 9.0 mi Calm Calm - N/A   Clear
7:03 AM 55.4 °F 33.8 °F 44% 29.85 in 9.0 mi Calm Calm - N/A   Clear
7:56 AM 60.1 °F 35.1 °F 39% 29.86 in 9.0 mi Calm Calm - N/A   Clear
8:56 AM 69.1 °F 39.9 °F 35% 29.87 in 10.0 mi Calm Calm - N/A   Clear
9:56 AM 75.0 °F 44.1 °F 33% 29.87 in 10.0 mi Variable 4.6 mph - N/A   Clear
10:56 AM 81.0 °F 45.0 °F 28% 29.86 in 10.0 mi Variable 4.6 mph - N/A   Clear
11:56 AM 84.9 °F 42.1 °F 22% 29.84 in 10.0 mi NW 5.8 mph - N/A   Clear
12:56 PM 88.0 °F 45.0 °F 22% 29.82 in 10.0 mi North 8.1 mph - N/A   Clear
1:56 PM 90.0 °F 45.0 °F 21% 29.80 in 10.0 mi NNE 5.8 mph - N/A   Clear
2:56 PM 91.9 °F 46.0 °F 21% 29.77 in 10.0 mi Variable 4.6 mph - N/A   Clear
3:56 PM 91.9 °F 46.9 °F 21% 29.75 in 10.0 mi NNE 8.1 mph - N/A   Clear
4:56 PM 93.0 °F 46.0 °F 20% 29.73 in 10.0 mi North 5.8 mph - N/A   Clear
5:56 PM 91.9 °F 46.0 °F 21% 29.72 in 10.0 mi North 5.8 mph - N/A   Clear
6:56 PM 84.9 °F 46.0 °F 26% 29.72 in 10.0 mi North 4.6 mph - N/A   Clear
7:56 PM 81.0 °F 48.0 °F 31% 29.73 in 10.0 mi North 4.6 mph - N/A   Clear
8:56 PM 77.0 °F 44.1 °F 31% 29.74 in 8.0 mi NNW 3.5 mph - N/A   Clear
9:56 PM 73.0 °F 39.9 °F 30% 29.75 in 9.0 mi NNW 4.6 mph - N/A   Clear
10:56 PM 70.0 °F 39.9 °F 33% 29.76 in 9.0 mi NNW 5.8 mph - N/A   Clear
11:56 PM 70.0 °F 39.0 °F 32% 29.76 in 9.0 mi NNW 5.8 mph - N/A   Clear